www.pogodaiklimat.ru

Погода и климат >> Архив погоды >> Индия >> Мадхья-Прадеш >> Хошангабад


ПОГОДА в Хошангабаде

  • Прогноз погоды в Хошангабаде
  • Монитор погоды в Хошангабаде

АРХИВ ПОГОДЫ в Хошангабаде

Время (UTC), дата Ветер
(напр.,м/с)
 
Видим.   Явления Облачность Т
(С)
Тd
(С)
f
(%)
Тe
(С)
Тes
(С)
Комфортность P
(гПа)
Po
(гПа)
Тmin
(С)
Tmax
(С)
R
(мм)
R24
(мм)
S
(см)
09 18.05 З 2 10 км 4/4 750 м
[Sc]
+39.6 +8.5 15 +37 +48 очень
жарко
1004.1 971.8
12 18.05 СЗ 1 10 км 4/4 750 м
[Sc]
+39.8 +13.4 21 +40 +42 очень
душно
1002.8 970.6 +40.5
03 19.05 штиль 0 4000 м ясно +31.2 +11.8 30 +32 +42 жарко 1007.8 974.6 +26.1
06 19.05 ЮЗ 1 10 км ясно +38.0 +10.7 19 +37 +64 опасность
солнечного
удара
1006.9 974.3
09 19.05 ЮЗ 1 10 км 3/3 750 м
[Sc]
+40.8 +10.3 16 +39 +53 опасность
солнечного
удара
1004.1 971.9
12 19.05 штиль 0 4000 м 3/3 750 м
[Sc]
+39.6 +10.9 18 +38 +41 очень
жарко
1003.1 970.9 +41.7
03 20.05 штиль 0 4000 м ясно +32.2 +18.7 45 +37 +48 очень
душно
1008.3 975.1 +26.6
06 20.05 штиль 0 10 км ясно +38.2 +11.1 20 +37 +66 опасность
солнечного
удара
1006.7 974.4
09 20.05 ЮЗ 1 4000 м 3/3 600 м
[Sc]
+42.4 +9.9 15 +41 +54 опасность
перегрева
1003.5 971.6
12 20.05 ЮЗ 1 4000 м 3/3 750 м
[Sc]
+41.0 +10.1 16 +40 +42 очень
жарко
1002.3 970.2 +42.7
03 21.05 штиль 0 4000 м ясно +32.8 +14.2 33 +34 +45 очень
жарко
1006.4 973.3 +28.0
06 21.05 штиль 0 10 км ясно +41.0 +11.3 17 +40 +69 опасность
солнечного
удара
1005.4 973.1
09 21.05 ЮЗ 1 4000 м 1/1 750 м
[Sc]
+43.4 +9.5 13 +42 +60 опасность
перегрева
1002.6 970.8
12 21.05 ЮЗ 1 10 км 1/1 750 м
[Sc]
+42.6 +10.3 15 +41 +44 опасность
перегрева
1000.7 968.9 +44.5
03 22.05 штиль 0 4000 м ясно +33.4 +15.1 33 +35 +46 душно 1004.9 972.0 +29.9
06 22.05 ЮЗ 2 10 км ясно +40.2 +14.6 22 +41 +64 опасность
перегрева
1003.7 971.5
09 22.05 ЮЗ 2 10 км 1/1 750 м
[Sc]
+43.0 +11.7 16 +42 +57 опасность
перегрева
1001.0 969.2
12 22.05 ЮЗ 2 10 км 3/3 750 м
[Sc]
+42.6 +13.7 18 +42 +44 опасность
перегрева
999.3 967.5 +43.3
03 23.05 штиль 0 4000 м ясно +33.2 +15.5 35 +36 +47 очень
душно
1005.5 972.3 +27.4
06 23.05 З 1 10 км ясно +40.4 +15.4 23 +42 +67 опасность
перегрева
1003.4 971.2
09 23.05 З 3 10 км 1/1 750 м
[Sc]
+42.6 +12.6 17 +42 +56 опасность
перегрева
1000.9 969.0
12 23.05 ЮЗ 1 10 км 3/3 750 м
[Sc]
+42.0 +13.1 18 +42 +44 опасность
перегрева
999.3 967.4 +43.0
03 24.05 ЮЗ 1 10 км ясно +32.6 +16.9 39 +36 +45 очень
душно
1005.9 972.9 +27.4
06 24.05 ЮЗ 1 10 км ясно +40.0 +14.7 23 +41 +68 опасность
перегрева
1004.0 971.7
09 24.05 ЮЗ 1 10 км 3/3 750 м
[Sc]
+41.4 +16.0 23 +43 +57 опасность
перегрева
1001.9 969.9
12 24.05 ЮЗ 1 10 км 3/3 750 м
[Sc]
+41.0 +14.4 21 +42 +44 опасность
перегрева
1000.2 968.1 +42.0
03 25.05 штиль 0 4000 м ясно +33.6 +18.6 41 +38 +49 очень
душно
1007.1 972.2 +27.0
06 25.05 штиль 0 10 км 4/3 750 м
[Sc Ac trans]
+40.2 +16.9 26 +43 +61 опасность
перегрева
1003.7 971.5

 

Местоположение метеостанции Хошангабад (Мадхья-Прадеш, Индия): широта 22.77 долгота 77.77 высота над уровнем моря 302 м.

В архиве по умолчанию представлена погода в Хошангабаде за последнюю неделю. Архивные данные за месяц целиком и за предыдущие месяцы, начиная с января 2011 года, Вы можете получить, выбрав интересующий диапазон дат из раскрывающегося списка и нажав кнопку "Ввод!".


*Определитесь, кто Вы:
робот инопланетянин человек

Внимание! Время в таблицах - всемирное. Для получения местного времени необходимо прибавить поправку, которая равна 5.5 ч.

Смотрите также архив погоды в соседних городах и на ближайших метеорологических станциях:

Погода в Райсене (Мадхья-Прадеш, Индия) (61 км)
Погода в Бхопале (Мадхья-Прадеш, Индия) (71 км)
Погода в Пачмарае (Мадхья-Прадеш, Индия) (76 км)
Погода в Бетуле (Мадхья-Прадеш, Индия) (101 км)
Погода в Нарсингпуре (Мадхья-Прадеш, Индия) (146 км)
Погода в Чхиндваре (Мадхья-Прадеш, Индия) (147 км)
Погода в Сагаре (Мадхья-Прадеш, Индия) (156 км)
Погода в Шаджапуре (Мадхья-Прадеш, Индия) (166 км)
Погода в Раджгархе (Мадхья-Прадеш, Индия) (174 км)
Погода в Кхандве (Мадхья-Прадеш, Индия) (178 км)

Пояснения к столбцам:

Ветер - указаны скорость ветра в м/с - средняя за 10 мин, порывы в срок и между сроками (в фигурных скобках) и направление, откуда дует ветер: С - северный, СВ - северо-восточный, В - восточный, ЮВ - юго-восточный, Ю - южный, ЮЗ - юго-западный, З - западный, СЗ - северо-западный.
Видимость - горизонтальная дальность видимости в метрах или километрах. При видимости от 1 до 10 км при отсутствии осадков обычно наблюдается дымка, при ухудшении видимости до 1 км и менее - туман. В сухую погоду видимость может ухудшаться дымом, пылью или мглою.
Явления - указаны атмосферные явления, наблюдавшиеся в срок или в последний час перед сроком; фигурными скобками обозначены явления, наблюдавшиеся между сроками (за 1-3 часа до срока); квадратными скобками обозначены град или гололедные отложения с указанием их диаметра в мм.
Облачность - указаны через наклонную черту общая и нижняя облачность в баллах и высота нижней границы облаков в метрах; квадратными скобками обозначены формы облаков: Ci - перистые, Cs - перисто-слоистые, Cc - перисто-кучевые, Ac - высококучевые, As - высокослоистые, Sc - слоисто-кучевые, Ns - слоисто-дождевые, Cu - кучевые, Cb - кучево-дождевые. Подробнее классификацию облаков см. в Атласе облаков (PDF).
T - Температура воздуха - температура, измеренная на высоте 2 м над землей.
Td - Температура точки росы - температура, при понижении до которой содержащийся в воздухе водяной пар достигнет насыщения.
f - Относительная влажность воздуха - влажноcть воздуха, измеренная на высоте 2 м над землей.
Te - Эффективная температура - температура, которую ощущает одетый по сезону человек в тени. Характеристика душности погоды. При расчете учитывается влияние влажности воздуха и скорости ветра на теплоощущения человека.
Tes - Эффективная температура на солнце - температура, которую ощущает человек, с поправкой на солнечный нагрев. Характеристика знойности погоды. Зависит от высоты солнца над горизонтом, облачности и скорости ветра. Ночью, в пасмурную погоду, а также при ветре 12 м/с и более поправка равна нулю.
P - Атмосферное давление - приведенное к уровню моря атмосферное давление.
Po - Атмосферное давление - измеренное на уровне метеостанции атмосферное давление.
Tmin - Минимальная температура - минимум температуры воздуха на высоте 2 м над землей.
Tmax - Максимальная температура - максимум температуры воздуха на высоте 2 м над землей.
R - Количество осадков - Количество выпавших осадков за период времени, мм. При наведении курсора мыши на число - период времени, за который выпало указанное количество осадков.
R24 - Количество осадков - Количество выпавших осадков за 24 часа, мм.
S - Снежный покров - Высота снежного покрова, см. При наведении курсора мыши на число - состояние снежного покрова и степень покрытия местности в баллах.